When you browse on this site, cookies collect data to enhance your experience and personalize the content and advertising you see.
Visit our Privacy Policy to learn more. By continuing to use the site, you agree to this use of cookies and data.
  • In Netherlands
  • List of Countries
  • For 7 days
  • Water Temperature
  • Satellite Maps
  • Weather Map
  • Weather Widgets
  • user-avatar
    Login

    Hourly Weather Yulara

    Today, 19 January, Saturday

    Time Temperature Precipitation Wind Pressure Humidity
    00:00 +29°C° 0.3 mm 9 mps 717 mmHg 50%
    01:00 +29°C° 0 mm 9 mps 717 mmHg 50%
    02:00 +29°C° 0 mm 8 mps 716 mmHg 51%
    03:00 +29°C° 0 mm 7 mps 717 mmHg 50%
    04:00 +29°C° 0 mm 7 mps 717 mmHg 50%
    05:00 +29°C° 0 mm 7 mps 717 mmHg 50%
    06:00 +29°C° 0 mm 7 mps 717 mmHg 51%
    07:00 +31°C° 0 mm 8 mps 717 mmHg 47%
    08:00 +32°C° 0 mm 9 mps 718 mmHg 43%
    09:00 +34°C° 0 mm 10 mps 718 mmHg 37%
    10:00 +37°C° 0 mm 10 mps 718 mmHg 32%
    11:00 +39°C° 0 mm 9 mps 718 mmHg 28%
    12:00 +41°C° 0 mm 8 mps 717 mmHg 23%
    13:00 +43°C° 0 mm 7 mps 717 mmHg 21%
    14:00 +44°C° 0 mm 6 mps 716 mmHg 19%
    15:00 +45°C° 0 mm 5 mps 716 mmHg 16%
    16:00 +45°C° 0 mm 5 mps 715 mmHg 17%
    17:00 +43°C° 0 mm 5 mps 715 mmHg 17%
    18:00 +42°C° 0 mm 4 mps 715 mmHg 18%
    19:00 +41°C° 0 mm 6 mps 716 mmHg 20%
    20:00 +40°C° 0 mm 8 mps 716 mmHg 22%
    21:00 +39°C° 0 mm 10 mps 716 mmHg 24%
    22:00 +39°C° 0 mm 8 mps 717 mmHg 26%
    23:00 +38°C° 0 mm 7 mps 717 mmHg 28%

    Tomorrow, 20 January, Sunday

    Time Temperature Precipitation Wind Pressure Humidity
    00:00 +36°C° 0 mm 6 mps 717 mmHg 29%
    01:00 +35°C° 0 mm 7 mps 717 mmHg 31%
    02:00 +35°C° 0 mm 7 mps 716 mmHg 32%
    03:00 +34°C° 0 mm 8 mps 716 mmHg 33%
    04:00 +34°C° 0 mm 8 mps 716 mmHg 33%
    05:00 +33°C° 0 mm 7 mps 717 mmHg 32%
    06:00 +33°C° 0 mm 7 mps 717 mmHg 32%
    07:00 +35°C° 0 mm 8 mps 717 mmHg 29%
    08:00 +37°C° 0 mm 8 mps 718 mmHg 25%
    09:00 +39°C° 0 mm 9 mps 718 mmHg 22%
    10:00 +41°C° 0 mm 8 mps 718 mmHg 19%
    11:00 +44°C° 0 mm 8 mps 717 mmHg 15%
    12:00 +46°C° 0 mm 7 mps 717 mmHg 11%
    13:00 +47°C° 0 mm 7 mps 716 mmHg 10%
    14:00 +47°C° 0 mm 7 mps 715 mmHg 9%
    15:00 +49°C° 0 mm 7 mps 715 mmHg 8%
    16:00 +49°C° 0 mm 7 mps 715 mmHg 8%
    17:00 +47°C° 0 mm 7 mps 714 mmHg 8%
    18:00 +47°C° 0 mm 7 mps 714 mmHg 8%
    19:00 +45°C° 0 mm 8 mps 715 mmHg 10%
    20:00 +44°C° 0 mm 8 mps 715 mmHg 12%
    21:00 +41°C° 0 mm 8 mps 716 mmHg 14%
    22:00 +40°C° 0 mm 9 mps 716 mmHg 16%
    23:00 +39°C° 0 mm 9 mps 716 mmHg 18%

    Day after tomorrow, 21 January, Monday

    Time Temperature Precipitation Wind Pressure Humidity
    00:00 +38°C° 0 mm 10 mps 716 mmHg 20%
    01:00 +37°C° 0 mm 9 mps 715 mmHg 21%
    02:00 +37°C° 0 mm 9 mps 715 mmHg 21%
    03:00 +35°C° 0 mm 8 mps 715 mmHg 22%
    04:00 +35°C° 0 mm 7 mps 715 mmHg 23%
    05:00 +35°C° 0 mm 7 mps 715 mmHg 23%
    06:00 +35°C° 0 mm 6 mps 715 mmHg 23%
    07:00 +38°C° 0 mm 7 mps 716 mmHg 21%
    08:00 +39°C° 0 mm 9 mps 716 mmHg 18%
    09:00 +42°C° 0 mm 10 mps 716 mmHg 15%
    10:00 +44°C° 0 mm 8 mps 716 mmHg 13%
    11:00 +45°C° 0 mm 7 mps 715 mmHg 12%
    12:00 +47°C° 0 mm 5 mps 715 mmHg 11%
    13:00 +47°C° 0 mm 5 mps 715 mmHg 10%
    14:00 +47°C° 0 mm 5 mps 714 mmHg 10%
    15:00 +47°C° 0 mm 6 mps 714 mmHg 10%
    16:00 +46°C° 0 mm 5 mps 714 mmHg 10%
    17:00 +46°C° 0 mm 5 mps 714 mmHg 11%
    18:00 +44°C° 0 mm 4 mps 714 mmHg 12%
    19:00 +43°C° 0 mm 4 mps 714 mmHg 13%
    20:00 +42°C° 0 mm 3 mps 714 mmHg 14%
    21:00 +40°C° 0 mm 3 mps 715 mmHg 15%
    22:00 +39°C° 0 mm 3 mps 715 mmHg 15%
    23:00 +38°C° 0 mm 3 mps 715 mmHg 16%

    22 January, Tuesday

    Time Temperature Precipitation Wind Pressure Humidity
    00:00 +38°C° 0 mm 4 mps 715 mmHg 17%
    01:00 +37°C° 0 mm 4 mps 714 mmHg 17%
    02:00 +36°C° 0 mm 3 mps 714 mmHg 18%
    03:00 +35°C° 0 mm 3 mps 714 mmHg 19%
    04:00 +34°C° 0 mm 3 mps 714 mmHg 19%
    05:00 +34°C° 0 mm 3 mps 714 mmHg 20%
    06:00 +33°C° 0 mm 4 mps 714 mmHg 21%
    07:00 +35°C° 0 mm 4 mps 715 mmHg 19%
    08:00 +38°C° 0 mm 4 mps 715 mmHg 17%
    09:00 +41°C° 0 mm 4 mps 716 mmHg 16%
    10:00 +43°C° 0 mm 5 mps 715 mmHg 14%
    11:00 +45°C° 0 mm 7 mps 715 mmHg 12%
    12:00 +48°C° 0 mm 8 mps 715 mmHg 10%
    13:00 +48°C° 0 mm 8 mps 714 mmHg 11%
    14:00 +48°C° 0 mm 8 mps 713 mmHg 11%
    15:00 +46°C° 0 mm 7 mps 713 mmHg 11%
    16:00 +46°C° 0 mm 7 mps 713 mmHg 11%
    17:00 +46°C° 0 mm 7 mps 713 mmHg 12%
    18:00 +46°C° 0 mm 7 mps 713 mmHg 12%
    19:00 +44°C° 0 mm 6 mps 713 mmHg 13%
    20:00 +41°C° 0 mm 6 mps 713 mmHg 15%
    21:00 +40°C° 0 mm 6 mps 714 mmHg 16%
    22:00 +39°C° 0 mm 6 mps 714 mmHg 17%
    23:00 +39°C° 0 mm 6 mps 714 mmHg 18%

    23 January, Wednesday

    Time Temperature Precipitation Wind Pressure Humidity
    00:00 +38°C° 0 mm 6 mps 714 mmHg 19%
    01:00 +36°C° 0 mm 6 mps 714 mmHg 21%
    02:00 +36°C° 0 mm 6 mps 713 mmHg 23%
    03:00 +35°C° 0 mm 6 mps 713 mmHg 25%
    04:00 +34°C° 0 mm 6 mps 713 mmHg 26%
    05:00 +34°C° 0 mm 5 mps 714 mmHg 27%
    06:00 +33°C° 0 mm 5 mps 714 mmHg 28%
    07:00 +36°C° 0 mm 6 mps 714 mmHg 24%
    08:00 +39°C° 0 mm 6 mps 715 mmHg 21%
    09:00 +43°C° 0 mm 7 mps 715 mmHg 18%
    10:00 +44°C° 0 mm 7 mps 715 mmHg 17%
    11:00 +45°C° 0 mm 6 mps 714 mmHg 15%
    12:00 +46°C° 0 mm 6 mps 714 mmHg 13%
    13:00 +46°C° 0 mm 5 mps 713 mmHg 13%
    14:00 +46°C° 0 mm 5 mps 713 mmHg 13%
    15:00 +45°C° 0 mm 4 mps 712 mmHg 13%
    16:00 +45°C° 0 mm 4 mps 712 mmHg 13%
    17:00 +45°C° 0 mm 3 mps 712 mmHg 13%
    18:00 +44°C° 0 mm 3 mps 712 mmHg 13%
    19:00 +43°C° 0.2 mm 3 mps 712 mmHg 15%
    20:00 +41°C° 0.2 mm 2 mps 712 mmHg 17%
    21:00 +40°C° 0.2 mm 2 mps 713 mmHg 18%
    22:00 +39°C° 0 mm 3 mps 713 mmHg 20%
    23:00 +40°C° 0 mm 4 mps 713 mmHg 21%

    24 January, Thursday

    Time Temperature Precipitation Wind Pressure Humidity
    00:00 +39°C° 0 mm 5 mps 713 mmHg 22%
    01:00 +37°C° 0 mm 4 mps 712 mmHg 23%
    02:00 +36°C° 0 mm 4 mps 712 mmHg 25%
    03:00 +36°C° 0 mm 4 mps 712 mmHg 26%
    04:00 +35°C° 0 mm 3 mps 712 mmHg 27%
    05:00 +34°C° 0 mm 3 mps 712 mmHg 27%
    06:00 +34°C° 0 mm 3 mps 712 mmHg 28%
    07:00 +36°C° 0 mm 3 mps 713 mmHg 24%
    08:00 +38°C° 0 mm 3 mps 713 mmHg 21%
    09:00 +41°C° 0 mm 4 mps 713 mmHg 18%
    10:00 +43°C° 0 mm 4 mps 713 mmHg 16%
    11:00 +44°C° 0 mm 4 mps 713 mmHg 15%
    12:00 +45°C° 0 mm 4 mps 713 mmHg 13%
    13:00 +45°C° 0 mm 3 mps 712 mmHg 13%
    14:00 +45°C° 0 mm 3 mps 712 mmHg 13%
    15:00 +46°C° 0 mm 3 mps 711 mmHg 13%
    16:00 +45°C° 0.1 mm 3 mps 711 mmHg 13%
    17:00 +45°C° 0.1 mm 3 mps 711 mmHg 14%
    18:00 +43°C° 0.1 mm 2 mps 711 mmHg 15%
    19:00 +42°C° 0.1 mm 2 mps 712 mmHg 16%
    20:00 +41°C° 0.1 mm 2 mps 712 mmHg 16%
    21:00 +41°C° 0.1 mm 2 mps 712 mmHg 17%
    22:00 +40°C° 0.1 mm 3 mps 713 mmHg 20%
    23:00 +39°C° 0.1 mm 3 mps 713 mmHg 22%
    Show more